TimeCST,TemperatureF,Dew PointF,Humidity,Sea Level PressureIn,VisibilityMPH,Wind Direction,Wind SpeedMPH,Gust SpeedMPH,PrecipitationIn,Events,Conditions,WindDirDegrees,DateUTC
12:54 AM,15.1,10.9,84,30.25,9.0,WSW,3.5,-,N/A,,Clear,250,2013-01-03 06:54:00
1:54 AM,16.0,12.0,84,30.27,10.0,West,5.8,-,N/A,,Clear,260,2013-01-03 07:54:00
2:54 AM,16.0,12.0,84,30.28,9.0,Calm,Calm,-,N/A,,Mostly Cloudy,0,2013-01-03 08:54:00
3:54 AM,18.0,14.0,84,30.27,10.0,Calm,Calm,-,N/A,,Scattered Clouds,0,2013-01-03 09:54:00
4:54 AM,19.0,12.9,77,30.29,10.0,Calm,Calm,-,N/A,,Clear,0,2013-01-03 10:54:00
5:54 AM,17.1,12.9,84,30.31,10.0,Calm,Calm,-,N/A,,Clear,0,2013-01-03 11:54:00
6:54 AM,14.0,10.9,88,30.33,10.0,Calm,Calm,-,N/A,,Clear,0,2013-01-03 12:54:00
7:54 AM,14.0,10.0,84,30.35,9.0,Calm,Calm,-,N/A,,Clear,0,2013-01-03 13:54:00
8:54 AM,21.9,17.1,82,30.38,8.0,WNW,4.6,-,N/A,,Clear,290,2013-01-03 14:54:00
9:54 AM,28.0,21.9,78,30.40,6.0,WSW,9.2,-,N/A,,Haze,250,2013-01-03 15:54:00
10:54 AM,32.0,24.1,73,30.40,9.0,West,5.8,-,N/A,,Clear,270,2013-01-03 16:54:00
11:54 AM,34.0,25.0,70,30.38,10.0,WSW,9.2,-,N/A,,Clear,250,2013-01-03 17:54:00
12:54 PM,37.0,25.0,62,30.36,10.0,WSW,9.2,-,N/A,,Clear,250,2013-01-03 18:54:00
1:54 PM,39.0,25.0,57,30.35,10.0,WSW,8.1,-,N/A,,Mostly Cloudy,240,2013-01-03 19:54:00
2:54 PM,39.9,25.0,55,30.36,10.0,West,5.8,-,N/A,,Mostly Cloudy,270,2013-01-03 20:54:00
3:54 PM,37.9,26.1,62,30.37,10.0,West,5.8,-,N/A,,Mostly Cloudy,270,2013-01-03 21:54:00
4:54 PM,34.0,24.1,67,30.38,10.0,West,6.9,-,N/A,,Mostly Cloudy,260,2013-01-03 22:54:00
5:54 PM,33.1,24.1,70,30.40,10.0,WSW,5.8,-,N/A,,Overcast,250,2013-01-03 23:54:00
6:54 PM,33.1,25.0,72,30.42,10.0,West,3.5,-,N/A,,Overcast,280,2013-01-04 00:54:00
7:54 PM,33.1,24.1,70,30.43,10.0,Calm,Calm,-,N/A,,Overcast,0,2013-01-04 01:54:00
8:54 PM,30.0,23.0,75,30.42,10.0,WSW,5.8,-,N/A,,Mostly Cloudy,250,2013-01-04 02:54:00
9:54 PM,26.1,21.9,84,30.43,10.0,Calm,Calm,-,N/A,,Mostly Cloudy,0,2013-01-04 03:54:00
10:54 PM,26.1,21.0,81,30.43,10.0,WSW,6.9,-,N/A,,Clear,250,2013-01-04 04:54:00
11:54 PM,26.1,21.0,81,30.43,10.0,West,3.5,-,N/A,,Clear,260,2013-01-04 05:54:00